Date,TemperatureHighF,TemperatureAvgF,TemperatureLowF,DewpointHighF,DewpointAvgF,DewpointLowF,HumidityHigh,HumidityAvg,HumidityLow,PressureMaxIn,PressureMinIn,WindSpeedMaxMPH,WindSpeedAvgMPH,GustSpeedMaxMPH,PrecipitationSumIn
2013-4-1,61.5,47.2,30.7,36.8,28.7,21.7,84,51,24,29.84,29.52,22,3,32,0.00
2013-4-2,54.5,42.7,34.4,37.7,32.7,28.8,93,70,39,29.81,29.57,13,2,16,0.04
2013-4-3,59.6,44.9,35.7,33.8,29.4,21.5,88,59,26,29.97,29.74,14,2,15,0.00
2013-4-4,65.3,48.1,29.4,30.7,25.4,21.9,79,45,23,30.12,29.68,19,4,19,0.00
2013-4-5,63.9,48.7,36.5,39.5,29.3,22.6,88,51,23,29.71,29.47,27,4,27,0.03
2013-4-6,58.6,46.0,32.7,38.4,32.4,23.1,94,64,27,29.86,29.59,16,4,20,0.05
2013-4-7,57.7,46.5,32.7,36.3,30.4,21.0,92,58,26,29.71,29.36,24,5,28,0.00
2013-4-8,61.5,44.9,35.0,37.3,29.9,23.5,88,59,24,29.39,29.00,21,2,22,0.09
2013-4-9,39.0,29.8,18.0,35.8,27.3,15.3,98,90,85,29.98,29.15,18,3,18,0.25
2013-4-10,36.6,24.6,13.7,26.0,18.1,10.6,90,77,57,30.18,29.91,13,2,13,0.18
2013-4-11,50.9,35.9,26.4,36.7,28.0,19.3,87,74,44,29.96,29.62,13,2,14,0.01
2013-4-12,56.7,43.0,32.1,37.2,29.2,22.4,91,62,27,29.75,29.60,13,3,16,0.00
2013-4-13,61.2,46.1,27.0,38.4,25.6,20.0,87,49,22,29.68,29.10,37,8,40,0.09
2013-4-19,48.8,42.3,34.4,30.6,24.2,17.4,86,51,32,30.07,29.86,18,4,21,0.00
2013-4-20,50.5,39.3,32.4,37.0,32.4,29.0,93,78,45,29.92,29.71,10,2,12,0.02
2013-4-21,57.2,45.2,33.7,37.3,30.2,23.1,95,61,29,30.00,29.66,17,3,20,0.07
2013-4-22,62.0,50.2,36.7,32.2,27.5,18.8,82,44,20,29.69,29.42,21,6,32,0.00
2013-4-23,44.9,36.2,28.8,32.0,19.9,8.9,89,55,25,30.04,29.62,18,4,19,0.02
2013-4-24,52.8,37.0,21.2,18.7,14.3,9.9,75,43,19,30.16,29.94,17,2,18,0.00
2013-4-25,65.8,44.4,25.5,24.6,20.2,16.2,76,43,17,30.07,29.61,16,2,21,0.00
2013-4-26,65.7,47.8,29.0,24.7,20.5,15.2,73,38,15,30.00,29.72,14,2,17,0.00
2013-4-27,68.9,50.3,28.7,28.0,22.4,16.5,71,38,14,30.15,29.76,12,2,14,0.00
2013-4-28,74.3,54.4,30.1,30.5,25.5,20.8,76,37,16,29.98,29.48,17,3,19,0.00
2013-4-29,75.3,60.6,45.0,33.6,27.1,22.5,52,31,15,29.61,29.21,20,5,24,0.00
2013-4-30,72.3,62.0,47.8,37.2,28.3,24.0,60,29,18,29.36,29.11,22,8,28,0.00